This is the latest recevied weather packets stored in our database for station/object OK3MS-5. If no packets are shown the sender has not sent any weather packets the latest 10 day(s).
| Time | Temp. | Humidity | Pressure | Rain* | Wind** | Luminosity | Snow |
|---|---|---|---|---|---|---|---|
| 1777311307 | 13.33° C | 44% | 1018.4 hPa | 0 mm | - | 16 W/m² | - |
| 1777311009 | 13.33° C | 44% | 1018.2 hPa | 0 mm | - | 21 W/m² | - |
| 1777310703 | 13.89° C | 43% | 1018.2 hPa | 0 mm | - | 26 W/m² | - |
| 1777310409 | 13.89° C | 42% | 1018.1 hPa | 0 mm | - | 30 W/m² | - |
| 1777310102 | 14.44° C | 41% | 1018.1 hPa | 0 mm | - | 36 W/m² | - |
| 1777309804 | 14.44° C | 37% | 1018 hPa | 0 mm | - | 43 W/m² | - |
| 1777309504 | 15° C | 33% | 1017.9 hPa | 0 mm | - | 49 W/m² | - |
| 1777309205 | 15° C | 32% | 1017.8 hPa | 0 mm | - | 52 W/m² | - |
| 1777308904 | 15° C | 32% | 1018 hPa | 0 mm | - | 55 W/m² | - |
| 1777308604 | 15° C | 32% | 1018 hPa | 0 mm | - | 58 W/m² | - |
| 1777308306 | 15° C | 32% | 1017.8 hPa | 0 mm | - | 64 W/m² | - |
| 1777308010 | 15° C | 33% | 1017.9 hPa | 0 mm | - | 72 W/m² | - |
| 1777307702 | 15.56° C | 32% | 1017.9 hPa | 0 mm | - | 80 W/m² | - |
| 1777307404 | 15.56° C | 30% | 1017.9 hPa | 0 mm | - | 93 W/m² | - |
| 1777307104 | 15.56° C | 32% | 1018 hPa | 0 mm | - | 99 W/m² | - |
| 1777306809 | 15.56° C | 30% | 1018 hPa | 0 mm | - | 101 W/m² | - |
| 1777306504 | 15.56° C | 32% | 1018.1 hPa | 0 mm | - | 111 W/m² | - |
| 1777306204 | 15.56° C | 32% | 1018.1 hPa | 0 mm | - | 118 W/m² | - |
| 1777305904 | 15.56° C | 32% | 1018 hPa | 0 mm | - | 121 W/m² | - |
| 1777305609 | 16.11° C | 32% | 1018 hPa | 0 mm | - | 119 W/m² | - |
| 1777305307 | 15.56° C | 31% | 1018 hPa | 0 mm | - | 117 W/m² | - |
| 1777305006 | 15.56° C | 30% | 1018.1 hPa | 0 mm | - | 128 W/m² | - |
| 1777304709 | 16.11° C | 30% | 1018.2 hPa | 0 mm | - | 148 W/m² | - |
| 1777304405 | 16.11° C | 30% | 1018.2 hPa | 0 mm | - | 174 W/m² | - |
| 1777304104 | 16.11° C | 28% | 1018.2 hPa | 0 mm | - | 183 W/m² | - |
* Rain latest hour (hover to see other rain measurements)
** Current wind speed in m/s (hover to see current wind gust speed)